[[{"header":{"parameterUnit":"m.s-1","parameterCategory":1,"la1":30.2991,"la2":30.254,"lo1":-89.0895,"lo2":-89.0444,"dy":0.0017,"dx":0.0017,"nx":28,"ny":28,"refTime":"2024-06-13T03:00:00:Z","depth":0,"parameterNumber":2,"parameterNumberName":"U-component_of_WINDS"},"data":[0,0,0,0,0,0,0,0,0,0,0,0,0,0,0,0,0,0,0,0,0,0,0,0,0,0,0,0,0,0,0,0,0,0,0,0,0,0,0,0,0,0,0,0,0,0,0,0,0,0,0,0,0,0,0,0,0,0,-0.612,-0.612,0,-0.609,-0.609,-0.609,-0.6056,-0.6055,-0.6054,-0.6054,-0.6026,-0.6026,-0.6026,0,0,0,0,0,0,0,0,0,0,0,0,0,-0.6152,-0.6152,-0.612,-0.612,-0.6119,-0.609,-0.609,-0.609,-0.6056,-0.6055,-0.6054,-0.6054,-0.6026,-0.6026,-0.6026,0,0,0,0,0,0,0,0,0,0,0,0,0,-0.6132,-0.6152,-0.612,-0.6099,-0.6097,-0.609,-0.609,-0.6089,-0.6056,-0.6055,-0.6054,-0.6053,-0.6026,-0.6026,-0.6026,-0.6039,0,0,-0.6024,-0.6024,0,0,0,0,0,0,0,0,-0.6133,-0.6131,-0.6102,-0.61,-0.6098,-0.6076,-0.6091,-0.6073,-0.6056,-0.6071,-0.6054,-0.6053,-0.6043,-0.6042,-0.6038,-0.6037,-0.6036,-0.6024,-0.6024,-0.6024,-0.6024,0,0,0,0,0,0,0,-0.6135,-0.6132,-0.6108,-0.6102,-0.6099,-0.6092,-0.6089,-0.6087,-0.6062,-0.607,-0.6067,-0.6064,-0.6042,-0.6038,-0.6037,-0.6036,-0.6024,-0.6024,-0.6024,-0.6024,-0.605,-0.6051,0,0,0,0,0,0,-0.6139,-0.6133,-0.6109,-0.6107,-0.6114,-0.6092,-0.6088,-0.6084,-0.6062,-0.6058,-0.6065,-0.6063,-0.6039,-0.6037,-0.6036,-0.6053,-0.6024,-0.6024,-0.6023,-0.6049,-0.605,-0.6051,0,0,0,0,0,0,-0.6139,-0.6137,-0.611,-0.612,-0.6116,-0.6093,-0.6088,-0.6083,-0.608,-0.6058,-0.6054,-0.6065,-0.6039,-0.6036,-0.6039,-0.6051,-0.6023,-0.6023,-0.6048,-0.6049,-0.6051,-0.6085,0,0,0,0,0,0,-0.6141,-0.6137,-0.6141,-0.612,-0.6115,-0.6113,-0.6088,-0.6083,-0.6079,-0.6076,-0.6058,-0.6054,-0.6038,-0.604,-0.6039,-0.605,-0.6023,-0.6047,-0.6049,-0.605,-0.6083,-0.6088,-0.6092,0,0,0,0,0,-0.6142,-0.6151,-0.6141,-0.6138,-0.6119,-0.6113,-0.6111,-0.6092,-0.608,-0.6084,-0.6071,-0.6054,-0.605,-0.6041,-0.6039,-0.6051,-0.6046,-0.6048,-0.605,-0.6081,-0.6087,-0.6092,0,0,0,0,0,0,-0.6173,-0.6148,-0.6136,-0.6139,-0.6129,-0.6108,-0.6112,-0.6098,-0.6091,-0.6088,-0.6066,-0.6062,-0.6069,-0.606,-0.6049,-0.6065,-0.6046,-0.6048,-0.607,-0.6075,-0.608,-0.6082,-0.6022,0,0,0,0,0,-0.6181,-0.6177,-0.6155,-0.616,-0.6155,-0.6135,-0.6132,-0.6118,-0.6107,-0.6102,-0.6089,-0.608,-0.6078,-0.6076,-0.6071,-0.6082,-0.608,-0.6089,-0.6094,-0.6098,-0.61,-0.6109,-0.6114,-0.6058,-0.6058,-0.6058,0,0,-0.6195,-0.6181,-0.618,-0.6166,-0.6156,-0.6156,-0.6131,-0.613,-0.613,-0.6102,-0.6105,-0.6096,-0.6084,-0.6092,-0.6095,-0.6085,-0.6115,-0.61,-0.6103,-0.6104,-0.6112,-0.6117,-0.6122,-0.606,-0.6059,-0.6059,0,0,-0.6222,-0.621,-0.6214,-0.6206,-0.6192,-0.6179,-0.618,-0.6162,-0.6155,-0.6157,-0.6138,-0.6138,-0.6132,-0.6126,-0.6122,-0.6152,-0.6138,-0.6151,-0.6175,-0.6184,-0.6188,-0.6192,-0.6206,-0.6211,-0.6153,-0.6154,-0.6154,0,-0.6243,-0.6239,-0.6218,-0.6219,-0.6215,-0.6191,-0.6197,-0.619,-0.6176,-0.6175,-0.6164,-0.6159,-0.6149,-0.6157,-0.6165,-0.6161,-0.6165,-0.6153,-0.6189,-0.6193,-0.6196,-0.6209,-0.6214,-0.6155,-0.6155,-0.6155,-0.6155,0,-0.6266,-0.6265,-0.627,-0.6258,-0.6254,-0.6257,-0.624,-0.6239,-0.6227,-0.6216,-0.6221,-0.6209,-0.6204,-0.6205,-0.6192,-0.6212,-0.6207,-0.6193,-0.6174,-0.6204,-0.6216,-0.622,-0.6158,-0.6158,-0.6157,-0.6156,0,0,-0.631,-0.6289,-0.6291,-0.6287,-0.6272,-0.6271,-0.6276,-0.6271,-0.6272,-0.6264,-0.6269,-0.6267,-0.6255,-0.6251,-0.6238,-0.6246,-0.6275,-0.6231,-0.6231,-0.6242,-0.6301,-0.6313,-0.6319,-0.6265,-0.6266,-0.6267,-0.6303,0,-0.6336,-0.634,-0.6324,-0.6334,-0.6334,-0.6313,-0.6317,-0.631,-0.6301,-0.6302,-0.6292,-0.6292,-0.6274,-0.6273,-0.6279,-0.627,-0.6287,-0.6267,-0.6272,-0.6273,-0.6277,-0.6324,-0.6336,-0.637,-0.6307,-0.6308,-0.6308,0,-0.6365,-0.636,-0.6371,-0.6359,-0.6358,-0.6362,-0.6359,-0.6358,-0.6352,-0.6345,-0.6342,-0.6328,-0.6335,-0.6316,-0.6327,-0.6314,-0.6315,-0.6312,-0.6313,-0.6314,-0.6293,-0.6329,-0.638,-0.6387,-0.6315,-0.6314,-0.6314,0,-0.64,-0.6395,-0.6402,-0.6399,-0.6384,-0.6389,-0.6383,-0.6375,-0.6375,-0.6372,-0.6373,-0.6371,-0.6371,-0.6371,-0.6358,-0.6345,-0.6372,-0.6351,-0.6369,-0.637,-0.6376,-0.6376,-0.6431,-0.6374,-0.6374,-0.6374,-0.6374,0,-0.6431,-0.6438,-0.6418,-0.6422,-0.6431,-0.6414,-0.6424,-0.6417,-0.6411,-0.6415,-0.6397,-0.6402,-0.6384,-0.6388,-0.6379,-0.6391,-0.639,-0.6387,-0.6385,-0.639,-0.6391,-0.6392,-0.639,-0.6375,-0.6375,-0.6375,-0.6374,0,-0.647,-0.6456,-0.6462,-0.645,-0.6447,-0.6455,-0.6445,-0.645,-0.6441,-0.6447,-0.6448,-0.6434,-0.6439,-0.6426,-0.6428,-0.6422,-0.6441,-0.6433,-0.6443,-0.6442,-0.6461,-0.6461,-0.652,-0.6529,-0.6464,-0.6465,-0.6466,0,-0.6491,-0.6497,-0.6486,-0.6487,-0.6483,-0.6486,-0.6486,-0.647,-0.6471,-0.6467,-0.6473,-0.6476,-0.6478,-0.6486,-0.6478,-0.6481,-0.6475,-0.6496,-0.6475,-0.6482,-0.6479,-0.6479,-0.6482,-0.65,-0.6501,-0.6502,-0.6502,0,-0.6531,-0.6525,-0.6525,-0.6525,-0.6526,-0.6525,-0.6522,-0.6525,-0.6509,-0.6512,-0.6516,-0.6518,-0.6521,-0.6526,-0.6528,-0.6524,-0.6512,-0.6509,-0.6514,-0.652,-0.6526,-0.6526,-0.6457,-0.6508,-0.6507,-0.6507,-0.6506,-0.6506,-0.6564,-0.657,-0.6564,-0.6566,-0.6563,-0.6563,-0.6568,-0.6561,-0.6564,-0.6565,-0.6556,-0.6564,-0.6562,-0.6563,-0.6562,-0.6569,-0.656,-0.6566,-0.6568,-0.657,-0.6575,-0.6524,-0.6569,-0.6569,-0.6569,-0.6569,-0.6568,0,-0.6605,-0.6601,-0.6604,-0.6602,-0.6605,-0.6593,-0.6591,-0.6595,-0.6601,-0.66,-0.6603,-0.661,-0.6616,-0.661,-0.6615,-0.6622,-0.6617,-0.6625,-0.6625,-0.6625,-0.6581,-0.6578,-0.6629,-0.6629,-0.6629,-0.6629,-0.6629,-0.6629,-0.6627,-0.6638,-0.6632,-0.6642,-0.6639,-0.6645,-0.6646,-0.6647,-0.6646,-0.6655,-0.666,-0.6656,-0.6654,-0.6659,-0.6665,-0.6664,-0.6668,-0.6678,-0.6674,-0.6633,-0.6628,-0.6622,-0.6619,-0.6678,-0.6678,-0.6718,-0.6719,-0.6719]},{"header":{"parameterUnit":"m.s-1","parameterCategory":1,"la1":30.2991,"la2":30.254,"lo1":-89.0895,"lo2":-89.0444,"dy":0.0017,"dx":0.0017,"nx":28,"ny":28,"refTime":"2024-06-13T03:00:00:Z","depth":0,"parameterNumber":3,"parameterNumberName":"V-component_of_WINDS"},"data":[0,0,0,0,0,0,0,0,0,0,0,0,0,0,0,0,0,0,0,0,0,0,0,0,0,0,0,0,0,0,0,0,0,0,0,0,0,0,0,0,0,0,0,0,0,0,0,0,0,0,0,0,0,0,0,0,0,0,2.7152,2.7153,0,2.7235,2.7235,2.7236,2.7293,2.7294,2.7294,2.7295,2.7375,2.7377,2.7379,0,0,0,0,0,0,0,0,0,0,0,0,0,2.704,2.7041,2.7152,2.7153,2.7154,2.7234,2.7235,2.7237,2.7293,2.7294,2.7294,2.7295,2.7375,2.7377,2.7379,0,0,0,0,0,0,0,0,0,0,0,0,0,2.7102,2.7042,2.7152,2.7192,2.7197,2.7234,2.7236,2.7237,2.7293,2.7294,2.7295,2.7295,2.7374,2.7377,2.7379,2.7382,0,0,2.7387,2.7388,0,0,0,0,0,0,0,0,2.7098,2.7106,2.7185,2.719,2.7195,2.7255,2.7225,2.7285,2.7293,2.7256,2.7295,2.7295,2.7334,2.734,2.7354,2.7386,2.7389,2.7387,2.7389,2.739,2.7391,0,0,0,0,0,0,0,2.7094,2.7103,2.7185,2.7187,2.7192,2.7205,2.7214,2.7237,2.7291,2.726,2.7264,2.7273,2.7337,2.7351,2.7356,2.739,2.7387,2.739,2.7391,2.7392,2.7425,2.7424,0,0,0,0,0,0,2.7084,2.7099,2.7182,2.7187,2.7147,2.7206,2.7217,2.7235,2.7291,2.73,2.7273,2.7276,2.7347,2.7353,2.7359,2.7364,2.739,2.7392,2.7394,2.7425,2.7425,2.7424,0,0,0,0,0,0,2.7081,2.7091,2.7179,2.7144,2.7156,2.7207,2.7227,2.7236,2.725,2.73,2.731,2.7278,2.7347,2.7356,2.7375,2.7368,2.7394,2.7396,2.7426,2.7425,2.7424,2.7375,0,0,0,0,0,0,2.7078,2.7089,2.7092,2.7144,2.7158,2.7195,2.7226,2.7237,2.7255,2.726,2.7308,2.7316,2.7349,2.7371,2.7378,2.7372,2.7398,2.7427,2.7426,2.7425,2.7377,2.7372,2.7368,0,0,0,0,0,2.7073,2.7075,2.7092,2.7102,2.7163,2.7194,2.7202,2.7241,2.7254,2.7257,2.7288,2.7315,2.7368,2.7373,2.7381,2.7375,2.7428,2.7426,2.7425,2.7379,2.7373,2.7368,0,0,0,0,0,0,2.7021,2.7083,2.7102,2.7121,2.7152,2.7204,2.7208,2.7233,2.726,2.7263,2.7309,2.7319,2.7333,2.7357,2.7361,2.7379,2.7401,2.7401,2.7364,2.7358,2.7353,2.7347,2.74,0,0,0,0,0,2.7012,2.7034,2.7086,2.7097,2.7112,2.7157,2.7172,2.7199,2.7232,2.7246,2.7279,2.7309,2.7332,2.7347,2.7371,2.7381,2.7391,2.7381,2.7376,2.7372,2.7371,2.7375,2.7371,2.7419,2.7419,2.7419,0,0,2.6993,2.7029,2.704,2.7088,2.7115,2.7134,2.7168,2.7188,2.7202,2.7248,2.7269,2.7294,2.733,2.7344,2.7352,2.7364,2.736,2.737,2.7366,2.7368,2.7373,2.7368,2.7364,2.7418,2.7418,2.7418,0,0,2.6968,2.6999,2.7011,2.7037,2.7077,2.7107,2.7109,2.7157,2.7175,2.7197,2.7231,2.7248,2.7288,2.7311,2.7329,2.7309,2.7334,2.7316,2.7291,2.7294,2.729,2.7287,2.7278,2.7274,2.7315,2.7315,2.7315,0,2.6939,2.6972,2.7013,2.703,2.7049,2.7092,2.7102,2.7125,2.7171,2.7182,2.7195,2.7244,2.7272,2.7291,2.7286,2.7299,2.7301,2.7311,2.7288,2.7285,2.7283,2.7274,2.7271,2.7312,2.7313,2.7313,2.7313,0,2.6933,2.6954,2.6958,2.7001,2.7021,2.7034,2.7076,2.709,2.7114,2.7141,2.716,2.7195,2.7226,2.7233,2.7257,2.7254,2.726,2.728,2.7302,2.7275,2.7267,2.7265,2.7309,2.731,2.731,2.7311,0,0,2.6879,2.6943,2.6944,2.6962,2.7009,2.7025,2.704,2.707,2.708,2.711,2.7121,2.7153,2.7171,2.719,2.7217,2.722,2.7199,2.7239,2.7241,2.7229,2.7195,2.7178,2.7174,2.7216,2.7215,2.7215,2.7191,0,2.686,2.6889,2.6925,2.6941,2.696,2.6999,2.7011,2.704,2.7065,2.7083,2.7111,2.7132,2.7155,2.7167,2.7172,2.72,2.7192,2.7203,2.7224,2.7225,2.7213,2.7171,2.7154,2.7129,2.7188,2.7188,2.7188,0,2.6842,2.6869,2.6887,2.6929,2.6938,2.6948,2.6977,2.6995,2.7027,2.7045,2.7065,2.7093,2.7108,2.7128,2.7148,2.7154,2.7164,2.718,2.718,2.7182,2.7204,2.717,2.7123,2.7118,2.7184,2.7184,2.7185,0,2.6798,2.6839,2.6854,2.6869,2.6919,2.6925,2.6946,2.6978,2.6993,2.7018,2.7028,2.7054,2.7068,2.7087,2.712,2.7133,2.7135,2.7159,2.7148,2.7147,2.7146,2.7145,2.7098,2.7155,2.7155,2.7156,2.7156,0,2.6772,2.6781,2.6834,2.6843,2.6853,2.6894,2.6902,2.6926,2.6954,2.6967,2.7003,2.7014,2.7058,2.7074,2.71,2.711,2.7117,2.713,2.7136,2.7126,2.7124,2.7133,2.7134,2.7155,2.7155,2.7155,2.7155,0,2.6725,2.6762,2.678,2.6825,2.6836,2.6841,2.6879,2.6888,2.6915,2.693,2.6936,2.6978,2.6997,2.7033,2.7063,2.708,2.7084,2.7097,2.7073,2.7077,2.7063,2.7063,2.7019,2.7014,2.7076,2.7075,2.7075,0,2.6706,2.6713,2.6758,2.6769,2.6789,2.6807,2.6822,2.6861,2.6875,2.691,2.6914,2.6937,2.6957,2.6986,2.7017,2.704,2.7052,2.7035,2.7055,2.7043,2.7049,2.7047,2.7046,2.7029,2.7029,2.7028,2.7027,0,2.6666,2.6683,2.6704,2.673,2.6747,2.6769,2.6793,2.68,2.6844,2.6857,2.6878,2.6893,2.6923,2.6944,2.697,2.699,2.7014,2.7021,2.7019,2.7007,2.6992,2.6997,2.7058,2.7021,2.7022,2.7022,2.7023,2.7023,2.6631,2.6638,2.667,2.6691,2.6713,2.6734,2.6744,2.6771,2.6789,2.6816,2.6838,2.6856,2.6885,2.6923,2.694,2.6954,2.6966,2.6964,2.6963,2.6961,2.6956,2.6991,2.6959,2.6959,2.6959,2.6959,2.696,0,2.6592,2.6614,2.6633,2.6664,2.668,2.6703,2.673,2.674,2.6756,2.6781,2.6799,2.6821,2.6841,2.6873,2.6895,2.6899,2.6911,2.6903,2.6902,2.6906,2.6945,2.6943,2.6893,2.6893,2.6893,2.6893,2.6893,2.6893,2.6573,2.6585,2.6605,2.6628,2.6649,2.6667,2.668,2.6699,2.6718,2.6741,2.6758,2.6779,2.6806,2.6829,2.6847,2.6856,2.6861,2.6849,2.6861,2.6897,2.6903,2.6909,2.6908,2.6851,2.6851,2.6821,2.682,2.682]}]]